Time,TemperatureF,DewpointF,PressureIn,WindDirection,WindDirectionDegrees,WindSpeedMPH,WindSpeedGustMPH,Humidity,HourlyPrecipIn,Conditions,Clouds,dailyrainin,SoftwareType,DateUTC
2013-02-12 00:03:00,30.4,29.9,29.75,West,270,5.8,-999.0,98,-99.99,,,0.00,Acu-Link.com,2013-02-12 05:03:00,
2013-02-12 00:18:00,30.2,29.7,29.75,West,270,0.0,-999.0,98,-99.99,,,0.00,Acu-Link.com,2013-02-12 05:18:00,
2013-02-12 00:33:00,30.2,29.7,29.77,SW,225,2.7,-999.0,98,-99.99,,,0.00,Acu-Link.com,2013-02-12 05:33:00,
2013-02-12 00:48:00,30.4,29.1,29.77,WNW,292,1.6,-999.0,95,-99.99,,,0.00,Acu-Link.com,2013-02-12 05:48:00,
2013-02-12 01:06:00,30.4,28.9,29.77,North,0,2.7,-999.0,94,-99.99,,,0.00,Acu-Link.com,2013-02-12 06:06:00,
2013-02-12 01:21:00,30.4,28.6,29.78,WSW,247,5.8,-999.0,93,-99.99,,,0.00,Acu-Link.com,2013-02-12 06:21:00,
2013-02-12 01:36:00,30.4,28.3,29.78,WNW,292,4.7,-999.0,92,-99.99,,,0.00,Acu-Link.com,2013-02-12 06:36:00,
2013-02-12 01:51:00,30.2,28.2,29.78,NW,315,2.2,-999.0,92,-99.99,,,0.00,Acu-Link.com,2013-02-12 06:51:00,
2013-02-12 02:07:00,30.2,27.9,29.79,NW,315,4.3,-999.0,91,-99.99,,,0.00,Acu-Link.com,2013-02-12 07:07:00,
2013-02-12 02:22:00,30.2,27.9,29.80,NNE,22,1.6,-999.0,91,-99.99,,,0.00,Acu-Link.com,2013-02-12 07:22:00,
2013-02-12 02:37:00,30.2,28.2,29.81,West,270,1.6,-999.0,92,-99.99,,,0.00,Acu-Link.com,2013-02-12 07:37:00,
2013-02-12 02:54:00,30.0,28.0,29.82,SSW,202,0.0,-999.0,92,-99.99,,,0.00,Acu-Link.com,2013-02-12 07:54:00,
2013-02-12 03:14:00,30.0,28.0,29.82,SSW,202,4.3,-999.0,92,-99.99,,,0.00,Acu-Link.com,2013-02-12 08:14:00,
2013-02-12 03:29:00,29.8,27.3,29.82,SSW,202,1.1,-999.0,90,-99.99,,,0.00,Acu-Link.com,2013-02-12 08:29:00,
2013-02-12 03:44:00,29.8,27.3,29.82,WSW,247,4.7,-999.0,90,-99.99,,,0.00,Acu-Link.com,2013-02-12 08:44:00,
2013-02-12 03:59:00,29.7,27.4,29.82,SW,225,0.0,-999.0,91,-99.99,,,0.00,Acu-Link.com,2013-02-12 08:59:00,
2013-02-12 04:19:00,29.7,27.4,29.83,NW,315,4.7,-999.0,91,-99.99,,,0.00,Acu-Link.com,2013-02-12 09:19:00,
2013-02-12 04:34:00,29.5,27.4,29.83,SW,225,3.1,-999.0,92,-99.99,,,0.00,Acu-Link.com,2013-02-12 09:34:00,
2013-02-12 04:49:00,29.3,27.5,29.83,West,270,3.1,-999.0,93,-99.99,,,0.00,Acu-Link.com,2013-02-12 09:49:00,
2013-02-12 05:04:00,29.3,28.3,29.84,SW,225,1.6,-999.0,96,-99.99,,,0.00,Acu-Link.com,2013-02-12 10:04:00,
2013-02-12 05:19:00,29.1,28.6,29.85,WNW,292,4.3,-999.0,98,-99.99,,,0.00,Acu-Link.com,2013-02-12 10:19:00,
2013-02-12 05:34:00,29.1,28.6,29.85,WSW,247,0.0,-999.0,98,-99.99,,,0.00,Acu-Link.com,2013-02-12 10:34:00,
2013-02-12 05:50:00,29.1,28.6,29.86,WNW,292,2.7,-999.0,98,-99.99,,,0.00,Acu-Link.com,2013-02-12 10:50:00,
2013-02-12 06:05:00,29.1,28.6,29.86,WNW,292,2.7,-999.0,98,-99.99,,,0.00,Acu-Link.com,2013-02-12 11:05:00,
2013-02-12 06:20:00,29.1,28.4,29.87,NW,315,1.6,-999.0,97,-99.99,,,0.00,Acu-Link.com,2013-02-12 11:20:00,
2013-02-12 06:35:00,29.1,28.4,29.87,NW,315,0.0,-999.0,97,-99.99,,,0.00,Acu-Link.com,2013-02-12 11:35:00,
2013-02-12 06:50:00,29.1,28.4,29.88,ESE,112,4.7,-999.0,97,-99.99,,,0.00,Acu-Link.com,2013-02-12 11:50:00,
2013-02-12 07:05:00,29.1,28.1,29.88,NW,315,4.7,-999.0,96,-99.99,,,0.00,Acu-Link.com,2013-02-12 12:05:00,
2013-02-12 07:21:00,29.3,28.0,29.88,SW,225,0.0,-999.0,95,-99.99,,,0.00,Acu-Link.com,2013-02-12 12:21:00,
2013-02-12 07:36:00,29.3,28.0,29.89,West,270,0.0,-999.0,95,-99.99,,,0.00,Acu-Link.com,2013-02-12 12:36:00,
2013-02-12 07:51:00,29.3,28.3,29.89,SW,225,1.1,-999.0,96,-99.99,,,0.00,Acu-Link.com,2013-02-12 12:51:00,
2013-02-12 08:06:00,29.3,28.0,29.90,SSW,202,0.0,-999.0,95,-99.99,,,0.00,Acu-Link.com,2013-02-12 13:06:00,
2013-02-12 08:21:00,29.1,28.1,29.90,North,0,0.0,-999.0,96,-99.99,,,0.00,Acu-Link.com,2013-02-12 13:21:00,
2013-02-12 08:36:00,29.1,27.9,29.89,South,180,5.1,-999.0,95,-99.99,,,0.00,Acu-Link.com,2013-02-12 13:36:00,
2013-02-12 08:51:00,29.3,27.8,29.91,WNW,292,4.3,-999.0,94,-99.99,,,0.00,Acu-Link.com,2013-02-12 13:51:00,
2013-02-12 09:07:00,29.5,28.2,29.91,SSE,157,2.7,-999.0,95,-99.99,,,0.00,Acu-Link.com,2013-02-12 14:07:00,
2013-02-12 09:22:00,29.7,28.1,29.92,WNW,292,3.1,-999.0,94,-99.99,,,0.00,Acu-Link.com,2013-02-12 14:22:00,
2013-02-12 09:37:00,29.8,28.1,29.92,WNW,292,1.1,-999.0,93,-99.99,,,0.00,Acu-Link.com,2013-02-12 14:37:00,
2013-02-12 09:52:00,30.4,28.6,29.91,SW,225,4.3,-999.0,93,-99.99,,,0.00,Acu-Link.com,2013-02-12 14:52:00,
2013-02-12 10:07:00,30.9,28.9,29.92,WSW,247,0.0,-999.0,92,-99.99,,,0.00,Acu-Link.com,2013-02-12 15:07:00,
2013-02-12 10:23:00,31.1,28.5,29.93,SW,225,3.1,-999.0,90,-99.99,,,0.00,Acu-Link.com,2013-02-12 15:23:00,
2013-02-12 10:38:00,31.1,28.0,29.93,NW,315,0.0,-999.0,88,-99.99,,,0.00,Acu-Link.com,2013-02-12 15:38:00,
2013-02-12 10:53:00,31.5,28.3,29.92,NW,315,3.8,-999.0,88,-99.99,,,0.00,Acu-Link.com,2013-02-12 15:53:00,
2013-02-12 11:08:00,32.2,29.0,29.91,West,270,1.6,-999.0,88,-99.99,,,0.00,Acu-Link.com,2013-02-12 16:08:00,
2013-02-12 11:24:00,32.4,29.2,29.91,West,270,0.0,-999.0,88,-99.99,,,0.00,Acu-Link.com,2013-02-12 16:24:00,
2013-02-12 11:39:00,32.4,29.2,29.92,SW,225,3.8,-999.0,88,-99.99,,,0.00,Acu-Link.com,2013-02-12 16:39:00,
2013-02-12 11:54:00,32.7,29.3,29.92,NW,315,0.0,-999.0,87,-99.99,,,0.00,Acu-Link.com,2013-02-12 16:54:00,
2013-02-12 12:09:00,33.3,29.2,29.92,SW,225,0.0,-999.0,85,-99.99,,,0.00,Acu-Link.com,2013-02-12 17:09:00,
2013-02-12 12:24:00,34.0,29.4,29.91,SSW,202,4.7,-999.0,83,-99.99,,,0.00,Acu-Link.com,2013-02-12 17:24:00,
2013-02-12 12:40:00,34.3,29.4,29.91,WSW,247,4.3,-999.0,82,-99.99,,,0.00,Acu-Link.com,2013-02-12 17:40:00,
2013-02-12 12:55:00,34.9,30.0,29.91,SW,225,2.7,-999.0,82,-99.99,,,0.00,Acu-Link.com,2013-02-12 17:55:00,
2013-02-12 13:10:00,34.7,29.2,29.89,SSW,202,2.7,-999.0,80,-99.99,,,0.00,Acu-Link.com,2013-02-12 18:10:00,
2013-02-12 13:25:00,33.6,29.6,29.88,West,270,0.0,-999.0,85,-99.99,,,0.00,Acu-Link.com,2013-02-12 18:25:00,
2013-02-12 13:40:00,34.5,29.3,29.87,ENE,67,6.3,-999.0,81,-99.99,,,0.00,Acu-Link.com,2013-02-12 18:40:00,
2013-02-12 13:56:00,36.0,30.4,29.84,West,270,6.7,-999.0,80,-99.99,,,0.00,Acu-Link.com,2013-02-12 18:56:00,
2013-02-12 14:11:00,35.6,29.7,29.83,SW,225,0.0,-999.0,79,-99.99,,,0.00,Acu-Link.com,2013-02-12 19:11:00,
2013-02-12 14:26:00,34.9,29.3,29.83,West,270,3.1,-999.0,80,-99.99,,,0.00,Acu-Link.com,2013-02-12 19:26:00,
2013-02-12 14:41:00,35.6,29.7,29.83,South,180,0.0,-999.0,79,-99.99,,,0.00,Acu-Link.com,2013-02-12 19:41:00,
2013-02-12 14:56:00,35.4,29.6,29.84,West,270,3.1,-999.0,79,-99.99,,,0.00,Acu-Link.com,2013-02-12 19:56:00,
2013-02-12 15:12:00,34.3,29.7,29.84,WSW,247,1.1,-999.0,83,-99.99,,,0.00,Acu-Link.com,2013-02-12 20:12:00,
2013-02-12 15:27:00,34.0,29.1,29.85,South,180,5.1,-999.0,82,-99.99,,,0.00,Acu-Link.com,2013-02-12 20:27:00,
2013-02-12 15:42:00,33.8,29.2,29.85,WNW,292,0.0,-999.0,83,-99.99,,,0.00,Acu-Link.com,2013-02-12 20:42:00,
2013-02-12 15:57:00,32.7,27.8,29.86,WSW,247,7.4,-999.0,82,-99.99,,,0.00,Acu-Link.com,2013-02-12 20:57:00,
2013-02-12 16:13:00,32.7,28.4,29.85,WSW,247,1.1,-999.0,84,-99.99,,,0.00,Acu-Link.com,2013-02-12 21:13:00,
2013-02-12 16:28:00,32.9,28.3,29.85,NNE,22,0.0,-999.0,83,-99.99,,,0.00,Acu-Link.com,2013-02-12 21:28:00,
2013-02-12 16:43:00,32.5,28.3,29.86,NNE,22,0.0,-999.0,84,-99.99,,,0.00,Acu-Link.com,2013-02-12 21:43:00,
2013-02-12 16:58:00,32.0,28.6,29.85,WSW,247,0.0,-999.0,87,-99.99,,,0.00,Acu-Link.com,2013-02-12 21:58:00,
2013-02-12 17:13:00,31.6,28.5,29.85,SSE,157,2.7,-999.0,88,-99.99,,,0.00,Acu-Link.com,2013-02-12 22:13:00,
2013-02-12 17:29:00,31.3,28.1,29.85,NNW,337,0.0,-999.0,88,-99.99,,,0.00,Acu-Link.com,2013-02-12 22:29:00,
2013-02-12 17:44:00,31.1,28.2,29.85,WSW,247,2.2,-999.0,89,-99.99,,,0.00,Acu-Link.com,2013-02-12 22:44:00,
2013-02-12 17:59:00,30.6,27.7,29.85,SSW,202,1.1,-999.0,89,-99.99,,,0.00,Acu-Link.com,2013-02-12 22:59:00,
2013-02-12 18:14:00,30.4,27.5,29.86,West,270,0.0,-999.0,89,-99.99,,,0.00,Acu-Link.com,2013-02-12 23:14:00,
2013-02-12 18:29:00,30.0,27.4,29.86,East,90,4.3,-999.0,90,-99.99,,,0.00,Acu-Link.com,2013-02-12 23:29:00,
2013-02-12 18:45:00,29.8,27.3,29.86,West,270,4.3,-999.0,90,-99.99,,,0.00,Acu-Link.com,2013-02-12 23:45:00,
2013-02-12 19:00:00,29.5,26.9,29.85,West,270,1.1,-999.0,90,-99.99,,,0.00,Acu-Link.com,2013-02-13 00:00:00,
2013-02-12 19:15:00,29.1,26.0,29.85,South,180,1.6,-999.0,88,-99.99,,,0.00,Acu-Link.com,2013-02-13 00:15:00,
2013-02-12 19:30:00,28.9,26.4,29.85,WNW,292,1.1,-999.0,90,-99.99,,,0.00,Acu-Link.com,2013-02-13 00:30:00,
2013-02-12 19:45:00,28.6,25.8,29.85,NW,315,0.0,-999.0,89,-99.99,,,0.00,Acu-Link.com,2013-02-13 00:45:00,
2013-02-12 20:01:00,28.6,26.0,29.84,WSW,247,0.0,-999.0,90,-99.99,,,0.00,Acu-Link.com,2013-02-13 01:01:00,
2013-02-12 20:16:00,28.4,25.8,29.84,WNW,292,2.7,-999.0,90,-99.99,,,0.00,Acu-Link.com,2013-02-13 01:16:00,
2013-02-12 20:31:00,28.4,25.8,29.84,WNW,292,2.2,-999.0,90,-99.99,,,0.00,Acu-Link.com,2013-02-13 01:31:00,
2013-02-12 20:46:00,28.2,25.7,29.83,WNW,292,0.0,-999.0,90,-99.99,,,0.00,Acu-Link.com,2013-02-13 01:46:00,
2013-02-12 21:02:00,28.0,25.5,29.82,NW,315,1.1,-999.0,90,-99.99,,,0.00,Acu-Link.com,2013-02-13 02:02:00,
2013-02-12 21:17:00,28.0,25.8,29.83,NE,45,0.0,-999.0,91,-99.99,,,0.00,Acu-Link.com,2013-02-13 02:17:00,
2013-02-12 21:32:00,28.0,26.0,29.82,West,270,1.6,-999.0,92,-99.99,,,0.00,Acu-Link.com,2013-02-13 02:32:00,
2013-02-12 21:47:00,28.0,25.8,29.82,SSE,157,0.0,-999.0,91,-99.99,,,0.00,Acu-Link.com,2013-02-13 02:47:00,
2013-02-12 22:02:00,27.7,25.4,29.81,North,0,6.7,-999.0,91,-99.99,,,0.00,Acu-Link.com,2013-02-13 03:02:00,
2013-02-12 22:18:00,27.5,25.2,29.81,NW,315,2.2,-999.0,91,-99.99,,,0.00,Acu-Link.com,2013-02-13 03:18:00,
2013-02-12 22:33:00,27.1,24.9,29.81,SW,225,3.8,-999.0,91,-99.99,,,0.00,Acu-Link.com,2013-02-13 03:33:00,
2013-02-12 22:48:00,27.0,25.2,29.81,North,0,0.0,-999.0,93,-99.99,,,0.00,Acu-Link.com,2013-02-13 03:48:00,
2013-02-12 23:03:00,27.0,25.0,29.80,NW,315,0.0,-999.0,92,-99.99,,,0.00,Acu-Link.com,2013-02-13 04:03:00,
2013-02-12 23:18:00,26.8,24.8,29.80,West,270,0.0,-999.0,92,-99.99,,,0.00,Acu-Link.com,2013-02-13 04:18:00,
2013-02-12 23:34:00,26.8,25.0,29.81,ENE,67,1.6,-999.0,93,-99.99,,,0.00,Acu-Link.com,2013-02-13 04:34:00,
2013-02-12 23:49:00,26.6,24.9,29.80,WNW,292,1.6,-999.0,93,-99.99,,,0.00,Acu-Link.com,2013-02-13 04:49:00,